Location: Newark
(35.6799°N, 139.7636°E)
Time: 22:30:05
(UTC+00:00)

Explorer 11/Cluster Stage 4 - Pass Details

Date: 20 December 2019
Orbit: 467 x 1259 km, 28.8° (Epoch: 23 January)

Event Time Altitude Azimuth Distance (km) Brightness Sun altitude
Exits shadow 18:51:59 18° 185° (S) 2,514 9.1 -34.5°
Maximum altitude 18:55:16 24° 153° (SSE) 2,284 9.1 -33.8°
Drops below altitude 10° 19:01:23 10° 104° (ESE) 3,224 10.5 -32.6°
Sets 19:05:00 0° 92° (E) 4,200 11.4 -31.9°
